QPF
0.00 0.00 0.01 0.01 0.00 0.00 0.01 0.01 0.01 0.01 0.01 0.02 0.01 0.01 0.02 0.02 0.02 0.04 0.04 0.05 0.06 0.08 0.09 0.06 0.07 0.12 0.12 0.09 0.08 0.07 0.07 0.07 0.07 0.10 0.09 0.07 0.06 0.04 0.03 0.04 0.04 0.04 0.04 0.06
0.00 0.00 0.00 0.01 0.00 0.00 0.00 0.00 0.01 0.01 0.02 0.03 0.03 0.03 0.02 0.03 0.03 0.03 0.04 0.06 0.09 0.09 0.09 0.08 0.07 0.08 0.10 0.07 0.07 0.07 0.05 0.04 0.05 0.06 0.06 0.06 0.06 0.06 0.05 0.04 0.04 0.05 0.06 0.06
0.00 0.00 0.00 0.00 0.00 0.00 0.01 0.01 0.01 0.02 0.05 0.05 0.06 0.04 0.03 0.03 0.03 0.02 0.03 0.06 0.09 0.10 0.08 0.07 0.06 0.06 0.05 0.04 0.03 0.03 0.03 0.03 0.04 0.04 0.05 0.08 0.10 0.09 0.09 0.05 0.03 0.04 0.04 0.04
0.00 0.00 0.01 0.01 0.00 0.00 0.00 0.01 0.01 0.02 0.04 0.04 0.03 0.03 0.03 0.03 0.03 0.02 0.02 0.04 0.05 0.07 0.06 0.06 0.07 0.05 0.03 0.02 0.02 0.02 0.02 0.03 0.03 0.03 0.05 0.07 0.08 0.07 0.05 0.04 0.04 0.04 0.04 0.04
0.00 0.00 0.01 0.01 0.01 0.01 0.01 0.01 0.02 0.03 0.05 0.05 0.04 0.03 0.03 0.02 0.02 0.02 0.03 0.04 0.05 0.06 0.06 0.09 0.10 0.06 0.04 0.04 0.03 0.02 0.03 0.03 0.03 0.03 0.05 0.07 0.07 0.05 0.03 0.04 0.04 0.04 0.03 0.02
0.01 0.01 0.01 0.01 0.02 0.02 0.01 0.02 0.06 0.09 0.08 0.07 0.05 0.03 0.01 0.01 0.02 0.02 0.07 0.12 0.11 0.09 0.07 0.09 0.08 0.05 0.04 0.04 0.04 0.03 0.03 0.03 0.04 0.06 0.08 0.08 0.08 0.06 0.05 0.05 0.05 0.04 0.02 0.02
0.01 0.01 0.01 0.01 0.03 0.03 0.03 0.02 0.04 0.04 0.03 0.04 0.04 0.02 0.02 0.02 0.01 0.02 0.06 0.13 0.14 0.10 0.07 0.07 0.05 0.03 0.03 0.03 0.03 0.03 0.04 0.06 0.09 0.13 0.13 0.14 0.11 0.07 0.07 0.06 0.05 0.04 0.03 0.03
0.02 0.02 0.03 0.03 0.04 0.05 0.05 0.04 0.03 0.03 0.03 0.03 0.04 0.05 0.05 0.05 0.04 0.03 0.03 0.09 0.12 0.07 0.06 0.05 0.03 0.03 0.03 0.03 0.03 0.03 0.04 0.05 0.06 0.08 0.07 0.08 0.08 0.09 0.10 0.08 0.06 0.05 0.05 0.05
0.03 0.03 0.03 0.04 0.06 0.11 0.10 0.09 0.05 0.04 0.04 0.04 0.05 0.04 0.06 0.06 0.05 0.04 0.03 0.08 0.14 0.10 0.07 0.05 0.03 0.03 0.02 0.02 0.03 0.03 0.04 0.05 0.06 0.07 0.08 0.11 0.12 0.12 0.11 0.09 0.07 0.06 0.06 0.05
0.03 0.03 0.03 0.04 0.04 0.06 0.08 0.09 0.06 0.05 0.05 0.04 0.03 0.03 0.03 0.03 0.02 0.02 0.02 0.03 0.10 0.09 0.06 0.04 0.03 0.02 0.02 0.02 0.03 0.04 0.05 0.06 0.07 0.08 0.10 0.13 0.12 0.10 0.07 0.06 0.05 0.04 0.04 0.05
0.03 0.04 0.03 0.03 0.03 0.02 0.02 0.03 0.04 0.06 0.04 0.03 0.03 0.03 0.01 0.01 0.01 0.01 0.01 0.01 0.05 0.06 0.07 0.04 0.03 0.02 0.03 0.03 0.04 0.06 0.07 0.09 0.11 0.13 0.12 0.09 0.08 0.06 0.05 0.04 0.04 0.05 0.05 0.05
0.03 0.04 0.03 0.02 0.01 0.01 0.01 0.02 0.04 0.07 0.08 0.07 0.05 0.03 0.02 0.01 0.01 0.01 0.01 0.01 0.04 0.07 0.07 0.08 0.06 0.04 0.04 0.05 0.07 0.09 0.12 0.12 0.12 0.11 0.08 0.06 0.06 0.05 0.05 0.04 0.05 0.06 0.06 0.06
0.03 0.04 0.03 0.02 0.01 0.01 0.01 0.01 0.03 0.07 0.12 0.16 0.09 0.04 0.04 0.04 0.02 0.02 0.02 0.02 0.03 0.06 0.07 0.09 0.07 0.05 0.04 0.06 0.07 0.08 0.09 0.09 0.08 0.07 0.07 0.07 0.06 0.05 0.05 0.05 0.04 0.05 0.06 0.06
0.02 0.04 0.06 0.04 0.02 0.01 0.01 0.02 0.03 0.04 0.05 0.09 0.11 0.07 0.04 0.03 0.03 0.02 0.03 0.03 0.04 0.05 0.06 0.07 0.07 0.05 0.05 0.04 0.05 0.06 0.07 0.06 0.05 0.05 0.06 0.06 0.06 0.05 0.04 0.04 0.03 0.03 0.04 0.04
0.03 0.03 0.03 0.03 0.02 0.01 0.01 0.02 0.03 0.03 0.03 0.03 0.04 0.05 0.04 0.04 0.03 0.04 0.04 0.07 0.09 0.07 0.07 0.08 0.09 0.06 0.03 0.02 0.03 0.04 0.05 0.06 0.05 0.03 0.03 0.03 0.03 0.03 0.03 0.03 0.03 0.03 0.03 0.04
0.06 0.03 0.02 0.01 0.01 0.01 0.01 0.02 0.03 0.03 0.04 0.05 0.04 0.03 0.04 0.04 0.05 0.06 0.06 0.09 0.16 0.15 0.12 0.12 0.11 0.07 0.04 0.02 0.03 0.03 0.03 0.03 0.02 0.01 0.01 0.01 0.01 0.02 0.02 0.02 0.02 0.02 0.03 0.03
0.05 0.03 0.02 0.01 0.01 0.01 0.02 0.03 0.03 0.04 0.08 0.07 0.05 0.05 0.06 0.06 0.05 0.06 0.09 0.09 0.13 0.17 0.12 0.12 0.11 0.06 0.03 0.03 0.03 0.03 0.03 0.02 0.01 0.01 0.01 0.01 0.01 0.01 0.01 0.02 0.02 0.03 0.03 0.03
0.03 0.02 0.01 0.01 0.01 0.01 0.02 0.03 0.03 0.04 0.08 0.07 0.06 0.06 0.05 0.04 0.04 0.07 0.11 0.11 0.11 0.13 0.12 0.09 0.08 0.05 0.03 0.02 0.02 0.02 0.02 0.02 0.01 0.01 0.01 0.01 0.01 0.01 0.01 0.02 0.02 0.03 0.03 0.04
0.01 0.01 0.01 0.01 0.01 0.01 0.01 0.02 0.03 0.04 0.04 0.05 0.05 0.05 0.05 0.06 0.07 0.09 0.09 0.08 0.07 0.08 0.07 0.05 0.04 0.03 0.02 0.02 0.02 0.02 0.02 0.02 0.02 0.01 0.01 0.01 0.01 0.01 0.01 0.02 0.02 0.02 0.03 0.03
0.02 0.01 0.01 0.02 0.02 0.01 0.02 0.03 0.03 0.04 0.03 0.03 0.03 0.04 0.05 0.06 0.06 0.06 0.06 0.05 0.05 0.05 0.04 0.04 0.03 0.03 0.02 0.01 0.01 0.02 0.03 0.02 0.02 0.01 0.01 0.01 0.01 0.01 0.02 0.02 0.02 0.03 0.03 0.03
0.03 0.02 0.03 0.04 0.02 0.01 0.02 0.02 0.02 0.03 0.03 0.02 0.03 0.05 0.04 0.04 0.04 0.04 0.04 0.04 0.05 0.05 0.05 0.04 0.03 0.03 0.02 0.01 0.01 0.01 0.02 0.02 0.01 0.01 0.01 0.02 0.02 0.02 0.03 0.03 0.04 0.05 0.05 0.04
0.03 0.02 0.03 0.02 0.01 0.02 0.03 0.02 0.02 0.03 0.04 0.03 0.04 0.05 0.04 0.03 0.03 0.04 0.04 0.03 0.04 0.05 0.06 0.06 0.04 0.02 0.02 0.02 0.01 0.01 0.02 0.02 0.03 0.03 0.03 0.04 0.03 0.04 0.04 0.04 0.06 0.06 0.07 0.06
0.04 0.03 0.02 0.02 0.03 0.04 0.04 0.03 0.03 0.04 0.04 0.04 0.06 0.06 0.04 0.04 0.03 0.04 0.03 0.02 0.03 0.03 0.03 0.05 0.06 0.04 0.02 0.02 0.02 0.02 0.03 0.03 0.04 0.04 0.04 0.05 0.06 0.07 0.06 0.06 0.06 0.07 0.07 0.07
0.03 0.03 0.03 0.04 0.06 0.07 0.07 0.05 0.04 0.05 0.05 0.05 0.07 0.06 0.05 0.04 0.04 0.03 0.02 0.02 0.02 0.03 0.02 0.03 0.08 0.08 0.04 0.02 0.03 0.04 0.04 0.05 0.05 0.05 0.05 0.06 0.05 0.06 0.06 0.05 0.06 0.06 0.05 0.05
0.06 0.06 0.07 0.07 0.08 0.10 0.08 0.06 0.06 0.07 0.07 0.07 0.09 0.08 0.06 0.04 0.03 0.02 0.02 0.02 0.02 0.03 0.03 0.04 0.07 0.10 0.08 0.03 0.03 0.05 0.08 0.08 0.06 0.05 0.05 0.04 0.04 0.03 0.03 0.03 0.03 0.03 0.03 0.02
0.13 0.11 0.13 0.12 0.10 0.10 0.08 0.07 0.07 0.07 0.07 0.08 0.08 0.06 0.05 0.03 0.02 0.02 0.03 0.03 0.02 0.03 0.03 0.04 0.05 0.06 0.09 0.06 0.05 0.05 0.06 0.08 0.09 0.07 0.07 0.07 0.05 0.04 0.03 0.03 0.02 0.02 0.02 0.02
0.18 0.17 0.16 0.13 0.12 0.10 0.08 0.07 0.06 0.05 0.04 0.04 0.03 0.03 0.04 0.03 0.03 0.03 0.02 0.02 0.02 0.03 0.03 0.03 0.04 0.03 0.05 0.05 0.04 0.05 0.06 0.06 0.05 0.05 0.06 0.06 0.05 0.05 0.04 0.04 0.02 0.01 0.02 0.03
MSLP
1008.85 1009.34 1009.75 1010.09 1010.42 1010.73 1011.04 1011.33 1011.58 1011.75 1011.82 1011.77 1011.58 1011.27 1010.85 1010.35 1009.82 1009.28 1008.77 1008.34 1007.99 1007.77 1007.68 1007.73 1007.93 1008.26 1008.71 1009.25 1009.86 1010.49 1011.12 1011.71 1012.24 1012.70 1013.09 1013.42 1013.70 1013.94 1014.17 1014.39 1014.59 1014.79 1014.97 1015.10
1009.50 1010.02 1010.36 1010.57 1010.69 1010.77 1010.84 1010.94 1011.05 1011.19 1011.31 1011.40 1011.43 1011.37 1011.22 1010.97 1010.63 1010.23 1009.81 1009.39 1009.03 1008.76 1008.60 1008.60 1008.74 1009.04 1009.46 1009.99 1010.58 1011.18 1011.78 1012.32 1012.79 1013.18 1013.51 1013.78 1014.02 1014.24 1014.46 1014.69 1014.92 1015.14 1015.34 1015.51
1010.04 1010.57 1010.87 1010.98 1010.95 1010.85 1010.75 1010.69 1010.70 1010.79 1010.95 1011.14 1011.34 1011.48 1011.55 1011.52 1011.36 1011.11 1010.78 1010.42 1010.08 1009.79 1009.62 1009.59 1009.71 1009.98 1010.39 1010.89 1011.44 1012.00 1012.52 1012.99 1013.37 1013.68 1013.92 1014.12 1014.30 1014.49 1014.70 1014.93 1015.19 1015.45 1015.69 1015.89
1010.34 1010.88 1011.15 1011.21 1011.09 1010.89 1010.67 1010.51 1010.44 1010.51 1010.68 1010.96 1011.27 1011.57 1011.81 1011.95 1011.96 1011.84 1011.62 1011.34 1011.05 1010.80 1010.65 1010.63 1010.75 1011.01 1011.40 1011.86 1012.36 1012.85 1013.29 1013.66 1013.94 1014.15 1014.29 1014.42 1014.54 1014.70 1014.90 1015.14 1015.42 1015.71 1015.99 1016.24
1010.31 1010.83 1011.10 1011.14 1010.99 1010.75 1010.49 1010.29 1010.20 1010.26 1010.46 1010.78 1011.17 1011.59 1011.95 1012.22 1012.36 1012.38 1012.28 1012.10 1011.89 1011.72 1011.61 1011.63 1011.77 1012.04 1012.41 1012.84 1013.28 1013.69 1014.03 1014.30 1014.47 1014.58 1014.64 1014.68 1014.76 1014.89 1015.08 1015.34 1015.64 1015.97 1016.29 1016.57
1009.92 1010.41 1010.67 1010.72 1010.60 1010.38 1010.14 1009.96 1009.89 1009.97 1010.20 1010.56 1011.02 1011.50 1011.95 1012.33 1012.59 1012.72 1012.74 1012.68 1012.58 1012.50 1012.48 1012.55 1012.74 1013.02 1013.37 1013.76 1014.14 1014.47 1014.72 1014.89 1014.97 1014.98 1014.97 1014.96 1015.00 1015.11 1015.30 1015.57 1015.90 1016.25 1016.60 1016.90
1009.20 1009.64 1009.90 1009.98 1009.92 1009.78 1009.62 1009.51 1009.49 1009.62 1009.89 1010.29 1010.79 1011.33 1011.84 1012.30 1012.66 1012.90 1013.04 1013.11 1013.14 1013.17 1013.25 1013.40 1013.62 1013.92 1014.26 1014.61 1014.93 1015.19 1015.36 1015.44 1015.44 1015.39 1015.32 1015.28 1015.29 1015.40 1015.59 1015.87 1016.21 1016.58 1016.93 1017.24
1008.24 1008.62 1008.89 1009.03 1009.07 1009.03 1008.99 1008.99 1009.07 1009.26 1009.59 1010.03 1010.56 1011.13 1011.70 1012.22 1012.66 1013.01 1013.27 1013.46 1013.61 1013.76 1013.94 1014.16 1014.43 1014.74 1015.08 1015.39 1015.66 1015.85 1015.95 1015.97 1015.91 1015.81 1015.71 1015.65 1015.65 1015.75 1015.95 1016.23 1016.57 1016.94 1017.29 1017.59
1007.17 1007.51 1007.80 1008.02 1008.17 1008.28 1008.38 1008.50 1008.70 1008.98 1009.36 1009.84 1010.40 1011.00 1011.60 1012.17 1012.68 1013.12 1013.48 1013.79 1014.06 1014.32 1014.59 1014.88 1015.18 1015.51 1015.82 1016.09 1016.31 1016.44 1016.49 1016.46 1016.36 1016.23 1016.12 1016.05 1016.05 1016.15 1016.35 1016.62 1016.95 1017.30 1017.63 1017.90
1006.15 1006.47 1006.80 1007.11 1007.40 1007.66 1007.91 1008.17 1008.49 1008.86 1009.31 1009.83 1010.41 1011.02 1011.65 1012.25 1012.81 1013.32 1013.77 1014.17 1014.54 1014.89 1015.22 1015.55 1015.88 1016.20 1016.48 1016.72 1016.88 1016.96 1016.96 1016.90 1016.78 1016.64 1016.53 1016.46 1016.47 1016.56 1016.74 1017.00 1017.30 1017.62 1017.91 1018.15
1005.28 1005.63 1006.03 1006.45 1006.86 1007.27 1007.68 1008.09 1008.51 1008.97 1009.48 1010.03 1010.62 1011.24 1011.87 1012.49 1013.09 1013.65 1014.16 1014.63 1015.07 1015.47 1015.84 1016.20 1016.52 1016.81 1017.06 1017.24 1017.35 1017.39 1017.35 1017.26 1017.14 1017.01 1016.90 1016.83 1016.84 1016.93 1017.09 1017.32 1017.59 1017.86 1018.10 1018.30
1004.64 1005.04 1005.53 1006.07 1006.62 1007.17 1007.72 1008.25 1008.78 1009.31 1009.86 1010.43 1011.03 1011.64 1012.27 1012.90 1013.50 1014.09 1014.63 1015.14 1015.61 1016.04 1016.42 1016.77 1017.07 1017.32 1017.51 1017.64 1017.71 1017.70 1017.64 1017.54 1017.42 1017.29 1017.20 1017.15 1017.16 1017.23 1017.37 1017.55 1017.77 1017.99 1018.19 1018.34
1004.22 1004.71 1005.30 1005.96 1006.63 1007.31 1007.97 1008.60 1009.20 1009.79 1010.37 1010.95 1011.54 1012.15 1012.76 1013.37 1013.98 1014.57 1015.12 1015.65 1016.12 1016.54 1016.92 1017.23 1017.50 1017.70 1017.84 1017.91 1017.93 1017.90 1017.83 1017.72 1017.61 1017.51 1017.43 1017.39 1017.41 1017.47 1017.58 1017.72 1017.88 1018.04 1018.19 1018.30
1003.98 1004.57 1005.26 1006.02 1006.80 1007.58 1008.33 1009.03 1009.68 1010.30 1010.90 1011.48 1012.06 1012.64 1013.23 1013.83 1014.43 1015.01 1015.56 1016.07 1016.54 1016.94 1017.29 1017.57 1017.78 1017.93 1018.02 1018.05 1018.04 1017.99 1017.91 1017.83 1017.74 1017.66 1017.61 1017.59 1017.61 1017.66 1017.74 1017.84 1017.96 1018.06 1018.16 1018.22
1003.85 1004.53 1005.32 1006.16 1007.03 1007.87 1008.67 1009.41 1010.10 1010.73 1011.33 1011.90 1012.46 1013.03 1013.60 1014.18 1014.77 1015.33 1015.87 1016.37 1016.82 1017.20 1017.51 1017.75 1017.92 1018.03 1018.08 1018.08 1018.05 1018.00 1017.94 1017.88 1017.83 1017.79 1017.78 1017.78 1017.81 1017.86 1017.91 1017.98 1018.04 1018.10 1018.14 1018.16
1003.75 1004.52 1005.38 1006.29 1007.21 1008.09 1008.92 1009.68 1010.37 1011.00 1011.59 1012.15 1012.70 1013.25 1013.81 1014.38 1014.95 1015.51 1016.04 1016.53 1016.96 1017.32 1017.60 1017.80 1017.94 1018.02 1018.05 1018.04 1018.01 1017.98 1017.95 1017.92 1017.91 1017.92 1017.95 1017.98 1018.03 1018.08 1018.12 1018.16 1018.18 1018.19 1018.18 1018.16
1003.65 1004.49 1005.41 1006.36 1007.30 1008.20 1009.03 1009.78 1010.47 1011.09 1011.66 1012.21 1012.75 1013.30 1013.85 1014.43 1015.00 1015.56 1016.09 1016.57 1016.99 1017.33 1017.59 1017.78 1017.90 1017.96 1017.98 1017.98 1017.96 1017.95 1017.96 1017.98 1018.02 1018.08 1018.14 1018.21 1018.28 1018.33 1018.36 1018.38 1018.37 1018.34 1018.29 1018.22
1003.54 1004.44 1005.40 1006.37 1007.32 1008.21 1009.02 1009.76 1010.42 1011.02 1011.58 1012.12 1012.66 1013.22 1013.78 1014.37 1014.96 1015.53 1016.07 1016.55 1016.97 1017.30 1017.56 1017.74 1017.85 1017.91 1017.93 1017.94 1017.94 1017.96 1018.00 1018.06 1018.15 1018.24 1018.35 1018.45 1018.53 1018.59 1018.61 1018.61 1018.58 1018.51 1018.42 1018.32
1003.43 1004.39 1005.38 1006.36 1007.29 1008.16 1008.95 1009.65 1010.29 1010.87 1011.42 1011.97 1012.52 1013.09 1013.67 1014.28 1014.89 1015.48 1016.03 1016.53 1016.95 1017.29 1017.54 1017.72 1017.84 1017.90 1017.92 1017.94 1017.97 1018.01 1018.08 1018.17 1018.28 1018.41 1018.53 1018.65 1018.74 1018.80 1018.82 1018.80 1018.74 1018.65 1018.52 1018.38
1003.37 1004.37 1005.39 1006.36 1007.28 1008.12 1008.88 1009.55 1010.16 1010.73 1011.28 1011.82 1012.39 1012.97 1013.59 1014.22 1014.85 1015.47 1016.04 1016.54 1016.97 1017.32 1017.58 1017.76 1017.87 1017.93 1017.97 1017.99 1018.03 1018.08 1018.16 1018.26 1018.39 1018.52 1018.65 1018.77 1018.85 1018.90 1018.91 1018.87 1018.79 1018.68 1018.53 1018.35
1003.38 1004.42 1005.45 1006.42 1007.32 1008.13 1008.85 1009.49 1010.08 1010.64 1011.18 1011.73 1012.31 1012.92 1013.56 1014.22 1014.87 1015.50 1016.09 1016.60 1017.03 1017.38 1017.64 1017.82 1017.92 1017.99 1018.02 1018.05 1018.08 1018.14 1018.21 1018.31 1018.42 1018.55 1018.66 1018.77 1018.83 1018.86 1018.85 1018.80 1018.70 1018.56 1018.39 1018.19
1003.47 1004.54 1005.57 1006.53 1007.41 1008.18 1008.87 1009.49 1010.06 1010.60 1011.15 1011.71 1012.30 1012.93 1013.59 1014.26 1014.92 1015.56 1016.14 1016.66 1017.09 1017.43 1017.68 1017.85 1017.96 1018.02 1018.05 1018.07 1018.10 1018.14 1018.20 1018.28 1018.38 1018.47 1018.56 1018.63 1018.67 1018.67 1018.64 1018.56 1018.44 1018.28 1018.10 1017.89
1003.63 1004.72 1005.74 1006.68 1007.52 1008.27 1008.92 1009.52 1010.07 1010.60 1011.15 1011.71 1012.32 1012.95 1013.61 1014.28 1014.95 1015.58 1016.15 1016.65 1017.07 1017.40 1017.64 1017.80 1017.91 1017.96 1017.99 1018.01 1018.03 1018.06 1018.10 1018.16 1018.23 1018.29 1018.35 1018.38 1018.38 1018.35 1018.29 1018.19 1018.05 1017.89 1017.69 1017.48
1003.85 1004.92 1005.92 1006.82 1007.62 1008.33 1008.96 1009.53 1010.07 1010.59 1011.14 1011.71 1012.31 1012.94 1013.59 1014.25 1014.90 1015.50 1016.05 1016.53 1016.92 1017.23 1017.46 1017.62 1017.72 1017.78 1017.81 1017.83 1017.85 1017.88 1017.91 1017.95 1017.99 1018.03 1018.05 1018.04 1018.01 1017.95 1017.86 1017.73 1017.58 1017.41 1017.21 1017.00
1004.08 1005.11 1006.05 1006.91 1007.66 1008.33 1008.93 1009.48 1010.01 1010.53 1011.08 1011.64 1012.24 1012.86 1013.50 1014.13 1014.74 1015.31 1015.82 1016.26 1016.62 1016.91 1017.12 1017.28 1017.38 1017.45 1017.49 1017.53 1017.56 1017.60 1017.63 1017.67 1017.69 1017.71 1017.70 1017.67 1017.61 1017.52 1017.40 1017.26 1017.09 1016.91 1016.72 1016.51
1004.30 1005.26 1006.13 1006.91 1007.61 1008.24 1008.81 1009.35 1009.88 1010.40 1010.95 1011.52 1012.10 1012.71 1013.32 1013.91 1014.48 1015.00 1015.46 1015.85 1016.18 1016.44 1016.64 1016.79 1016.90 1016.99 1017.06 1017.12 1017.18 1017.23 1017.28 1017.33 1017.35 1017.35 1017.33 1017.28 1017.20 1017.09 1016.95 1016.79 1016.62 1016.44 1016.25 1016.05
1004.47 1005.33 1006.11 1006.82 1007.46 1008.05 1008.60 1009.14 1009.67 1010.21 1010.76 1011.33 1011.91 1012.50 1013.08 1013.63 1014.15 1014.61 1015.02 1015.36 1015.65 1015.88 1016.07 1016.22 1016.34 1016.45 1016.55 1016.65 1016.73 1016.82 1016.89 1016.94 1016.97 1016.98 1016.95 1016.88 1016.79 1016.66 1016.52 1016.35 1016.17 1015.99 1015.81 1015.63
Thickness
5775 5785 5791 5790 5791 5795 5786 5778 5768 5773 5778 5789 5798 5803 5805 5806 5805 5805 5802 5802 5803 5802 5802 5802 5801 5800 5798 5795 5793 5790 5785 5781 5778 5775 5771 5768 5764 5761 5758 5755 5753 5750 5747 5743
5768 5781 5784 5781 5788 5790 5789 5787 5781 5780 5780 5798 5802 5802 5801 5801 5801 5798 5797 5797 5798 5799 5797 5797 5796 5795 5793 5791 5790 5786 5781 5778 5775 5771 5768 5764 5760 5757 5754 5751 5748 5745 5741 5738
5743 5764 5768 5757 5776 5781 5781 5785 5781 5772 5781 5792 5792 5794 5794 5796 5797 5795 5794 5794 5794 5794 5793 5792 5792 5792 5789 5788 5786 5782 5778 5775 5772 5769 5765 5761 5758 5753 5749 5746 5743 5739 5735 5733
5731 5743 5730 5754 5783 5786 5780 5780 5784 5785 5788 5791 5792 5793 5794 5795 5795 5792 5791 5790 5790 5789 5788 5787 5788 5787 5785 5782 5780 5776 5773 5771 5768 5765 5761 5757 5753 5749 5746 5742 5738 5734 5731 5729
5716 5718 5730 5755 5772 5776 5769 5764 5779 5780 5784 5786 5788 5784 5782 5789 5792 5790 5790 5788 5787 5786 5784 5782 5781 5779 5777 5774 5773 5770 5768 5766 5764 5761 5757 5752 5748 5745 5742 5738 5734 5731 5728 5724
5713 5713 5711 5739 5769 5781 5772 5749 5772 5777 5776 5778 5777 5761 5766 5782 5785 5784 5784 5782 5781 5779 5777 5774 5774 5773 5769 5766 5765 5763 5762 5760 5758 5756 5752 5748 5744 5740 5737 5733 5730 5726 5723 5720
5708 5707 5718 5748 5766 5771 5740 5742 5767 5772 5772 5772 5767 5767 5772 5776 5777 5777 5776 5774 5773 5772 5769 5767 5768 5766 5760 5758 5757 5757 5756 5754 5751 5749 5746 5742 5739 5736 5732 5728 5724 5720 5717 5714
5699 5697 5708 5749 5754 5746 5744 5758 5762 5765 5767 5766 5764 5767 5768 5768 5767 5767 5766 5765 5764 5762 5760 5760 5759 5757 5752 5749 5751 5750 5748 5746 5743 5741 5740 5737 5732 5729 5726 5721 5716 5713 5709 5707
5703 5706 5727 5741 5745 5750 5754 5752 5755 5757 5759 5759 5757 5757 5758 5757 5756 5756 5756 5755 5755 5752 5749 5748 5749 5748 5743 5743 5744 5742 5740 5737 5735 5733 5731 5729 5725 5722 5718 5714 5710 5706 5703 5700
5701 5710 5721 5731 5739 5744 5749 5747 5750 5753 5752 5751 5748 5747 5747 5745 5744 5744 5744 5744 5743 5741 5739 5737 5738 5738 5737 5737 5736 5734 5731 5729 5727 5724 5722 5720 5717 5714 5711 5707 5703 5700 5697 5694
5693 5704 5713 5721 5726 5733 5737 5740 5740 5742 5743 5742 5739 5737 5736 5735 5734 5733 5734 5733 5732 5730 5729 5728 5728 5727 5728 5729 5728 5724 5722 5720 5719 5717 5715 5712 5710 5707 5705 5702 5699 5695 5693 5690
5687 5699 5701 5707 5719 5726 5726 5726 5728 5729 5729 5731 5730 5727 5727 5725 5725 5725 5724 5722 5720 5719 5719 5718 5717 5717 5718 5719 5718 5715 5712 5710 5709 5707 5706 5704 5700 5698 5698 5696 5693 5691 5688 5684
5697 5703 5704 5709 5713 5718 5717 5718 5720 5720 5720 5719 5719 5719 5717 5714 5714 5713 5713 5712 5711 5709 5709 5708 5708 5708 5708 5709 5708 5705 5703 5701 5700 5699 5697 5695 5692 5689 5686 5686 5684 5682 5679 5677
5698 5699 5696 5699 5701 5706 5708 5709 5710 5710 5709 5710 5710 5709 5708 5706 5704 5703 5702 5702 5702 5701 5700 5699 5699 5698 5699 5699 5698 5696 5694 5693 5691 5689 5688 5687 5685 5683 5679 5676 5672 5670 5670 5668
5689 5691 5689 5691 5692 5694 5697 5698 5697 5696 5697 5698 5699 5698 5697 5695 5693 5693 5693 5693 5693 5691 5691 5690 5689 5688 5689 5689 5688 5686 5685 5683 5682 5681 5680 5678 5676 5674 5670 5667 5664 5661 5659 5658
5676 5679 5680 5680 5682 5684 5685 5685 5684 5685 5686 5687 5687 5687 5687 5686 5684 5683 5683 5683 5681 5680 5680 5680 5679 5679 5680 5680 5678 5677 5676 5675 5673 5672 5670 5668 5666 5663 5660 5657 5655 5653 5651 5649
5663 5664 5667 5669 5671 5674 5675 5676 5677 5677 5677 5676 5677 5677 5677 5676 5674 5673 5673 5673 5673 5673 5672 5671 5671 5672 5672 5672 5670 5668 5666 5666 5665 5662 5661 5659 5657 5654 5652 5649 5646 5645 5643 5642
5661 5662 5663 5664 5664 5665 5666 5667 5668 5669 5669 5669 5669 5668 5667 5666 5664 5664 5665 5665 5665 5664 5664 5664 5664 5664 5664 5663 5661 5659 5658 5657 5655 5653 5651 5649 5647 5645 5642 5640 5638 5636 5634 5632
5655 5656 5657 5658 5660 5659 5658 5659 5660 5661 5662 5661 5660 5657 5657 5658 5658 5657 5657 5655 5654 5653 5654 5656 5657 5655 5654 5654 5653 5651 5650 5648 5646 5644 5643 5641 5638 5636 5633 5631 5629 5627 5625 5622
5646 5649 5650 5651 5653 5652 5652 5653 5654 5654 5654 5653 5651 5650 5650 5650 5650 5649 5648 5646 5646 5647 5648 5648 5647 5646 5646 5646 5646 5644 5642 5641 5638 5636 5634 5631 5629 5627 5624 5623 5621 5618 5615 5612
5639 5641 5642 5644 5645 5647 5648 5649 5648 5647 5647 5647 5645 5644 5643 5643 5642 5642 5640 5638 5639 5641 5640 5640 5639 5638 5638 5638 5637 5635 5634 5632 5630 5627 5625 5623 5620 5618 5615 5613 5611 5609 5606 5603
5633 5636 5638 5639 5639 5640 5642 5643 5643 5643 5642 5641 5641 5640 5637 5635 5635 5635 5634 5634 5634 5634 5633 5632 5632 5632 5631 5630 5628 5626 5624 5623 5621 5618 5616 5614 5611 5608 5606 5604 5601 5599 5596 5593
5630 5631 5632 5632 5633 5634 5636 5637 5637 5638 5637 5636 5635 5634 5632 5631 5630 5629 5626 5628 5628 5628 5627 5626 5626 5626 5624 5622 5619 5618 5616 5614 5611 5609 5607 5605 5603 5600 5597 5595 5592 5589 5586 5582
5624 5625 5625 5626 5627 5627 5627 5629 5631 5632 5632 5632 5631 5630 5628 5625 5624 5625 5625 5625 5624 5623 5620 5619 5619 5619 5617 5615 5613 5611 5608 5606 5603 5601 5599 5597 5594 5591 5588 5585 5582 5579 5576 5574
5619 5620 5621 5621 5621 5621 5622 5623 5624 5624 5625 5624 5624 5624 5623 5622 5620 5619 5620 5619 5618 5616 5613 5613 5613 5612 5611 5608 5606 5604 5601 5599 5597 5594 5591 5588 5585 5582 5579 5576 5572 5569 5567 5563
5613 5614 5615 5617 5618 5618 5618 5619 5618 5618 5617 5616 5616 5617 5617 5616 5616 5615 5614 5613 5613 5610 5608 5607 5607 5605 5602 5600 5599 5597 5595 5593 5591 5587 5584 5580 5576 5573 5569 5566 5563 5559 5555 5552
5609 5610 5611 5612 5614 5615 5616 5616 5615 5614 5614 5614 5612 5612 5612 5611 5610 5609 5608 5607 5606 5604 5603 5602 5601 5599 5597 5595 5592 5591 5588 5586 5583 5580 5576 5572 5568 5564 5560 5557 5553 5549 5546 5542